Regional Weather Roundup
Issued by NWS

Home | Current Version | Previous Version | Graphics & Text | Print | Product List | Glossary On
Versions: 1 2 3 4 5 6 7 8 9 10 11 12 13 14 15 16 17 18 19 20 21 22 23 24 25 26 27 28 29 30 31 32 33 34 35 36 37 38 39 40 41 42 43 44 45 46 47 48 49 50
000
ASUS43 KMPX 022301
RWRMN
WEATHER ROUNDUP FOR MINNESOTA
NATIONAL WEATHER SERVICE TWIN CITIES/CHANHASSEN MN
600 PM CDT MON MAY 02 2016


NOTE: "FAIR" INDICATES FEW OR NO CLOUDS BELOW 12,000 FEET WITH NO
SIGNIFICANT WEATHER AND/OR OBSTRUCTIONS TO VISIBILITY. N/A MEANS
CURRENT SKY AND/OR WEATHER CONDITIONS ARE NOT AVAILABLE.

MNZ060>063-068>070-030000-
   Twin Cities Metro

CITY           SKY/WX    TMP DP  RH WIND       PRES   REMARKS
TWIN CITIES    MOSUNNY   66  30  26 VRB7      30.00F
ST PAUL        SUNNY     66  28  24 CALM      30.00F
CRYSTAL        SUNNY     68  28  22 NW8       29.99S
BLAINE         MOSUNNY   68  30  24 VRB3      29.99F
EDEN PRAIRIE   SUNNY     68  28  22 NW5       29.99F
SOUTH ST PAUL  PTSUNNY   66  32  27 SW7       29.99F
LAKE ELMO      FAIR      64  34  32 SW6       30.01S
$$
MNZ001>005-007-008-013>017-022>024-027-028-030000-
   Northwest Minnesota

CITY           SKY/WX    TMP DP  RH WIND       PRES   REMARKS
BEMIDJI        SUNNY     66  27  22 SE6       29.95F
HALLOCK        MOSUNNY   70  19  14 W9        29.94F
ROSEAU         SUNNY     68  25  19 NW5       29.96F
WARROAD        SUNNY     61  34  36 E7        29.97F
THIEF RVR FALL SUNNY     70  25  18 CALM      29.97S
CROOKSTON      SUNNY     72  27  18 SE5       29.95S
FOSSTON        SUNNY     70  21  16 CALM      29.96S
DETROIT LAKES  SUNNY     66  28  24 NW7       29.99S
MOORHEAD       MOSUNNY   70  27  19 SW6       29.96S
PARK RAPIDS    MOSUNNY   68  28  22 VRB7      29.97S
MAHNOMEN       MOCLDY    69  28  21 W10       29.96F
$$
MNZ006-009>011-018-025>026-030000-
   North Central Minnesota

CITY           SKY/WX    TMP DP  RH WIND       PRES   REMARKS
BAUDETTE       SUNNY     68  26  20 E6        29.94F
FLAG ISLAND    SUNNY     61  30  31 SE8       29.94F
INTL FALLS     SUNNY     68  27  21 SW9       29.94F
WASKISH        SUNNY     64  30  27 W8        29.96F
BIG FORK       SUNNY     68  28  22 S10       29.95F
LONGVILLE      SUNNY     66  27  22 W3        29.97F
GRAND RAPIDS   SUNNY     64  28  25 S6        29.98F
CRANE LAKE     SUNNY     66  21  18 CALM      29.96S
ORR            SUNNY     66  19  16 CALM      29.92F
COOK           SUNNY     66  28  24 W6        29.95F
WALKER         FAIR      64  32  30 E7        29.96F
$$
MNZ012-019>021-037-030000-
   Northeast Minnesota

CITY           SKY/WX    TMP DP  RH WIND       PRES   REMARKS
DULUTH         MOSUNNY   62  30  29 SE12      29.98F
ELY            SUNNY     64  25  22 W7        29.95S
HIBBING        MOSUNNY   63  28  26 SW9       29.95F
EVELETH        SUNNY     63  28  27 SW3       29.97F
DULUTH HARBOR  SUNNY     45  37  76 N3        30.00F
TWO HARBORS    SUNNY     63  37  39 S8        29.97F
SILVER BAY     SUNNY     59  30  33 SE5       29.97F
GRAND MARAIS     N/A     41  35  79 CALM      30.01F
G MARAIS ARPRT SUNNY     54  27  35 S8        30.01S
$$
MNZ029>031-032-039>041-046>048-054>057-064-030000-
   West Central Minnesota

CITY           SKY/WX    TMP DP  RH WIND       PRES   REMARKS
FERGUS FALLS   MOSUNNY   68  32  26 SW7       29.94S
WHEATON        MOSUNNY   70  36  28 CALM      29.98S
MORRIS         SUNNY     66  30  26 SW7       29.97S
ALEXANDRIA     SUNNY     64  27  24 W6        29.99F
ELBOW LAKE     CLOUDY    67  31  26 SW5       29.98S
WADENA         PTSUNNY   66  32  28 W7        29.98S
GLENWOOD       MOSUNNY   66  30  26 S9        29.99S
APPLETON       SUNNY     68  27  21 SW6       29.97F
BENSON         SUNNY     66  25  20 W3        29.98F
ORTONVILLE     PTSUNNY   66  30  26 S6        29.97F
MADISON        SUNNY     66  28  24 S8        29.98F
WILLMAR        FAIR      66  32  28 S5        30.00F
$$
MNZ033>034-036-042>043-049>051-058-059-030000-
   Central Minnesota

CITY           SKY/WX    TMP DP  RH WIND       PRES   REMARKS
ST CLOUD       MOSUNNY   64  30  27 W5        29.99S
SAUK CENTRE    FAIR      64  31  28 S3        29.99S
PAYNESVILLE    MOSUNNY   66  27  23 SW6       29.99S
AITKIN         MOSUNNY   66  21  18 CALM      29.98S
PINE RIVER     PTSUNNY   64  36  34 SW3       30.01S
BRAINERD       PTSUNNY   63  31  30 S7        29.99S
STAPLES        PTSUNNY   66  27  22 W3        29.98S
LONG PRAIRIE   FAIR      64  32  29 CALM      30.00S
LITTLE FALLS   PTSUNNY   64  28  25 W5        29.99S
LITCHFIELD     PTSUNNY   64  32  29 CALM      30.00S
BUFFALO        SUNNY     65  31  27 CALM      30.01S
MAPLE LAKE     SUNNY     66  35  31 CALM      30.01S
HUTCHINSON     SUNNY     67  34  29 SW5       30.01S
$$
MNZ037-044-045-052-053-030000-
   East Central Minnesota

CITY           SKY/WX    TMP DP  RH WIND       PRES   REMARKS
PRINCETON        N/A     63  37  39 CALM      30.00S
MORA           SUNNY     64  32  29 CALM      30.01S
CAMBRIDGE      CLOUDY    68  43  40 CALM      29.98S
RUSH CITY      SUNNY     65  31  28 S3        30.00S
MOOSE LAKE     CLOUDY    64  32  29 CALM      29.97S
HINCKLEY       FAIR      66  36  32 S6        29.99S
CLOQUET        MOSUNNY   63  27  25 SW3       29.98F
MCGREGOR       SUNNY     64  30  27 SE3       30.00S
$$
MNZ071>073-080-081-089-090-097-098-030000-
   Southwest Minnesota

CITY           SKY/WX    TMP DP  RH WIND       PRES   REMARKS
MONTEVIDEO     SUNNY     72  36  26 S3        30.00F
GRANITE FALLS  PTSUNNY   68  34  28 CALM      30.00F
CANBY          MOSUNNY   67  34  29 SE6       30.00F
MARSHALL       SUNNY     63  32  31 S3        30.00F
REDWOOD FALLS  SUNNY     65  32  29 S6        29.99F
OLIVIA         PTSUNNY   64  32  29 W3        29.99S
PIPESTONE      SUNNY     63  36  36 SW7       30.01F
WINDOM         SUNNY     63  30  29 CALM      30.02S
WORTHINGTON    CLOUDY    61  36  39 W5        30.03F
JACKSON        SUNNY     63  30  29 SE3       30.03F
TRACY          PTSUNNY   63  34  33 CALM      30.01S
SLAYTON        PTSUNNY   63  33  32 SW5       30.03S
$$
MNZ065>067-074>077-082>085-091>093-030000-
   South Central Minnesota

CITY           SKY/WX    TMP DP  RH WIND       PRES   REMARKS
MANKATO        MOSUNNY   64  34  32 SW7       30.01F
NEW ULM        SUNNY     63  34  34 S3        30.01F
ST JAMES       SUNNY     57  32  38 CALM      30.03F
FAIRMONT       SUNNY     63  32  31 NW3       30.02F
GLENCOE        SUNNY     65  37  35 CALM      30.00S
FARIBAULT      SUNNY     64  32  29 S3        30.01F
OWATONNA       SUNNY     64  30  27 W7        30.01F
WASECA         PTSUNNY   63  32  31 W3        30.03S
ALBERT LEA     PTSUNNY   63  36  36 SW3       30.02S
$$
MNZ078>079-086>088-094>096-030000-
   Southeast Minnesota

CITY           SKY/WX    TMP DP  RH WIND       PRES   REMARKS
ROCHESTER      MOSUNNY   61  38  42 SW8       30.02F
RED WING       SUNNY     66  30  26 S3        29.99F
STANTON        MOSUNNY   65  30  26 CALM      29.99F
DODGE CENTER   PTSUNNY   61  37  41 CALM      30.02S
WINONA         MOSUNNY   61  34  36 CALM      30.02S
AUSTIN         MOSUNNY   63  36  36 SW3       30.02S
PRESTON        SUNNY     59  35  40 CALM      30.03F
$$
ABBREVIATIONS USED IN REMARKS
   TC - TEMPERATURES IN CELSIUS
  WCI - WIND CHILL INDEX
   HX - HEAT INDEX
  VSB - VISIBILITY
$$




USA.gov is the U.S. government's official web portal to all federal, state and local government web resources and services.